カタログに戻る

STARLINK-5510

運用中通信VLEO
NORAD 55647·PAYLOAD·🇺🇸 United States

打ち上げ Feb 17, 2023 から Vandenberg Space Force Base

Loading…

次のパス (今後24時間)

TLE

最新Source: CelesTrak SupGP

元期: Sep 14, 2026, 20:37 UTC

1 55647C 23021V   26257.85951389  .00033298  00000+0  27905-2 0  2571
2 55647  70.0012  67.3494 0002953 270.3488 343.9004 14.98313899    12

AllMySatでSTARLINK-5510をリアルタイム追跡

Download on the App Store